FENGYUN 1C DEB, 31890

Orbit data source: Space-Track

FENGYUN 1C DEB, 31890 is space debris in SSO originally from a launch on Mon, 10 May 1999 UTC launched from the Taiyaun Space Center, China (TSC). Fengyun 1C debris stems from the Chinese weather satellite Fengyun-1C, which was intentionally destroyed by a Chinese anti-satellite missile in 2007. This event dramatically increased the amount of space debris, with thousands of trackable fragments posing hazards to satellites and human spaceflight. The Fengyun 1C debris cloud has become a focal point in discussions about space sustainability and the need for international regulations to prevent the creation of new debris.

Loading next visibility...
Identifier
31890, 1999-025CKR
Orbit
SSO
Country
Flag of CNCN / PRC
Related business
Manufacturer
Unknown
Mission
Spacecraft
Bus & Motor
Unknown
Mass
Unknown
Launch date (UTC)
1999-05-10 (27 years ago)
Launch vehicle
Unknown
Launch site
Taiyaun Space Center, China (TSC)
Object type
Payload
Rocket body
Debris
Shape & HBR
Unknown shape, 0.1 m
Radar Cross Section
Small (<0.1 m²)

Expand to show TLE details & history
Last TLE update: 4 days ago

TLE from 4 days ago
0 FENGYUN 1C DEB
1 31890U 99025CKR 26234.25191619  .00000153  00000-0  10825-3 0  9995
2 31890  98.7147 243.0170 0071321 246.4988 112.8677 14.10236143677110
Epoch: 2026-08-22T06:02Z
TLE epoch observation values (Epoch: 2026-08-22T06:02:45.558Z)
Latitude
-0.00004°
Longitude
-178.23782°
Altitude
881.837 km
Speed
7.401 km/s
True Right ascension
16h 12m 04s
True Declination
0° 00' 00"
Sunlit
Object was in daylight at epoch
Visualization orbit readout
Latitude
Unknown
Longitude
Unknown
Altitude
Unknown
Speed
Unknown
Apparent Right ascension
Unknown
Apparent Declination
Unknown
Sunlit
N/A
Visualization observer readout
Local Sidereal Time
03:00:41
Azimuth
Unknown
Elevation
Unknown
Doppler factor
Unknown
Orbital elements
Apogee altitude
907.328 km
Perigee altitude
804.143 km
Semi-major axis
7,233.872 km
Eccentricity
0.00713
Inclination
98.7147°
RAAN
243.017°
Arg. of periapsis
246.4988°
True anomaly
113.61812°
Mean anomaly
112.8677°
Eccentric anomaly
113.24317°
Mean motion
3.52766 °/min
Orbital period
102.05 mins
BSTAR
0.00010825
Loading maneuver chart data...
Computing Atmospheric mass density...

Documentation

Showing up to 5 results
|